Погода в Наблусе

Палестина     32°12′50″N   35°16′16″E
темп.,
°C
ветер,
м/с
пор.,
м/с
влажн.,
%
обл.,
%
осадки,
мм/ч
давл.,
гПа
погр.,
м
6 марта, сб
сб623:00+7з019110 0.0 102522
02:00+6св118910 0.0 102422
05:00+5в11832 0.0 102422
08:00+12в11541 0.0 102482
11:00+16всв22370 0.0 1024496
14:00+19всв22300 0.0 1021698
17:00+15с23580 0.0 102130
20:00+10зсз11790 0.0 102123
7 марта, вс
вс723:00+9з12760 0.0 102122
02:00+8з12600 0.0 101922
05:00+7з22640 0.0 101922
08:00+12з23690 0.0 1019163
11:00+15зсз45550 0.0 1019627
14:00+16зсз66550 0.0 1017742
17:00+13зсз46770 0.0 1016481
20:00+9зсз23930 0.0 101732
8 марта, пн
пн823:00+8з12950 0.0 101723
02:00+8зюз12950 0.0 101622
05:00+7зюз11950 0.0 101622
08:00+11зюз13840 0.0 1017353
11:00+15з55629 0.0 1017949
14:00+16з77584 0.0 1016969
17:00+13з57780 0.0 1016566
20:00+9зюз12940 0.0 101722
9 марта, вт
вт923:00+8ююз12940 0.0 101722
02:00+8ююз12920 0.0 101622
05:00+7юв11860 0.0 101622
08:00+13юв11560 0.0 1018154
11:00+17зюз12394 0.0 1017883
14:00+19зсз22353 0.0 1015959
17:00+17всв126056 0.0 101523
20:00+15вюв125876 0.0 101623
10 марта, ср
ср1023:00+15юв334899 0.0 101524
02:00+15вюв334883 0.0 101323
05:00+15вюв444793 0.0 101230
08:00+18вюв574679 0.0 1012173
11:00+24ююв583565 0.0 1010613
14:00+27зюз9152779 0.0 10071705
17:00+23ююз6103374 0.0 1005144
20:00+17юз574037 0.0 100779